{"data":{"norad_id":64030,"epoch":"2026-09-20T14:12:18.627264Z","epoch_age_seconds":135603,"freshness":"FRESH","line1":"1 64030U 25102J   26263.59188226  .00011692  00000+0  41010-3 0  9990","line2":"2 64030  70.0009 340.7654 0004136 273.0640  87.0061 15.29612617 75213","mean_motion":15.29612617,"eccentricity":0.0004136,"inclination_deg":70.0009,"raan_deg":340.7654,"arg_perigee_deg":273.064,"mean_anomaly_deg":87.0061,"bstar":0.0004101,"rev_number":7521,"period_min":94.141482882394,"perigee_km":474.13417836256,"apogee_km":479.80472241833,"semimajor_km":6855.1064503904,"source":"CELESTRAK","updated_at":"2026-09-21T09:00:35.187442Z"}}